Location: Burgerwiesen
(48.6500°N, 15.6167°E)
Time: 06:22:48
(UTC+00:00)

SPOT 1/Viking Rocket - Pass Details

Date: 09 April 2020
Orbit: 776 x 795 km, 98.5° (Epoch: 29 May)

Event Time Altitude Azimuth Distance (km) Brightness Sun altitude
Exits shadow 19:50:08 40° 128° (SE) 1,163 3.9 -19.9°
Maximum altitude 19:51:48 59° 70° (ENE) 920 3.7 -20.1°
Drops below altitude 10° 19:56:57 10° 352° (N) 2,377 6.7 -20.8°
Sets 19:59:19 0° 349° (N) 3,311 7.6 -21.1°
